TimePST,TemperatureF,Dew PointF,Humidity,Sea Level PressureIn,VisibilityMPH,Wind Direction,Wind SpeedMPH,Gust SpeedMPH,PrecipitationIn,Events,Conditions,WindDirDegrees,DateUTC
12:15 AM,35.6,24.8,65,30.12,10.0,NNE,3.5,-,N/A,,Scattered Clouds,30,2013-11-09 08:15:00
12:35 AM,35.6,24.8,65,30.12,10.0,Calm,Calm,-,N/A,,Clear,0,2013-11-09 08:35:00
12:55 AM,35.6,24.8,65,30.13,10.0,NW,3.5,-,N/A,,Clear,310,2013-11-09 08:55:00
1:15 AM,35.6,24.8,65,30.13,10.0,Calm,Calm,-,N/A,,Partly Cloudy,0,2013-11-09 09:15:00
1:35 AM,35.6,24.8,65,30.14,10.0,Calm,Calm,-,N/A,,Mostly Cloudy,0,2013-11-09 09:35:00
1:55 AM,35.6,24.8,65,30.14,10.0,Calm,Calm,-,N/A,,Overcast,0,2013-11-09 09:55:00
2:15 AM,35.6,24.8,65,30.13,10.0,Calm,Calm,-,N/A,,Overcast,0,2013-11-09 10:15:00
2:35 AM,35.6,24.8,65,30.13,10.0,Calm,Calm,-,N/A,,Overcast,0,2013-11-09 10:35:00
2:55 AM,33.8,24.8,70,30.14,10.0,Calm,Calm,-,N/A,,Mostly Cloudy,0,2013-11-09 10:55:00
3:15 AM,33.8,23.0,65,30.14,10.0,NNW,4.6,-,N/A,,Overcast,340,2013-11-09 11:15:00
3:35 AM,33.8,23.0,65,30.13,10.0,Calm,Calm,-,N/A,,Mostly Cloudy,0,2013-11-09 11:35:00
3:55 AM,33.8,21.2,60,30.14,10.0,Calm,Calm,-,N/A,,Clear,0,2013-11-09 11:55:00
4:15 AM,32.0,23.0,69,30.13,10.0,Calm,Calm,-,N/A,,Clear,0,2013-11-09 12:15:00
4:35 AM,32.0,21.2,64,30.14,10.0,Calm,Calm,-,N/A,,Clear,0,2013-11-09 12:35:00
4:55 AM,32.0,21.2,64,30.14,10.0,Calm,Calm,-,N/A,,Clear,0,2013-11-09 12:55:00
5:15 AM,32.0,23.0,69,30.14,10.0,WNW,4.6,-,N/A,,Clear,300,2013-11-09 13:15:00
5:35 AM,32.0,21.2,64,30.14,10.0,NW,4.6,-,N/A,,Clear,320,2013-11-09 13:35:00
5:55 AM,30.2,21.2,69,30.14,10.0,NW,3.5,-,N/A,,Clear,320,2013-11-09 13:55:00
6:15 AM,30.2,21.2,69,30.14,10.0,NW,3.5,-,N/A,,Clear,320,2013-11-09 14:15:00
6:35 AM,30.2,21.2,69,30.14,10.0,Calm,Calm,-,N/A,,Clear,0,2013-11-09 14:35:00
6:55 AM,28.4,19.4,69,30.15,10.0,Calm,Calm,-,N/A,,Clear,0,2013-11-09 14:55:00
7:15 AM,30.2,19.4,64,30.16,10.0,Calm,Calm,-,N/A,,Clear,0,2013-11-09 15:15:00
7:35 AM,30.2,19.4,64,30.16,10.0,Calm,Calm,-,N/A,,Scattered Clouds,0,2013-11-09 15:35:00
7:55 AM,32.0,21.2,64,30.16,10.0,North,3.5,-,N/A,,Partly Cloudy,10,2013-11-09 15:55:00
8:15 AM,32.0,23.0,69,30.16,10.0,NNW,3.5,-,N/A,,Clear,330,2013-11-09 16:15:00
8:35 AM,33.8,24.8,70,30.16,10.0,NNW,3.5,-,N/A,,Clear,340,2013-11-09 16:35:00
8:55 AM,35.6,24.8,65,30.16,10.0,North,5.8,-,N/A,,Clear,360,2013-11-09 16:55:00
9:15 AM,37.4,26.6,65,30.16,10.0,North,4.6,-,N/A,,Clear,10,2013-11-09 17:15:00
9:35 AM,37.4,28.4,70,30.15,10.0,NE,4.6,-,N/A,,Clear,40,2013-11-09 17:35:00
9:55 AM,41.0,30.2,65,30.16,10.0,East,6.9,-,N/A,,Clear,90,2013-11-09 17:55:00
10:15 AM,44.6,30.2,57,30.14,10.0,East,6.9,-,N/A,,Clear,100,2013-11-09 18:15:00
10:35 AM,46.4,30.2,53,30.14,10.0,SE,5.8,-,N/A,,Clear,140,2013-11-09 18:35:00
10:55 AM,48.2,30.2,50,30.13,10.0,South,15.0,20.7,N/A,,Clear,170,2013-11-09 18:55:00
11:15 AM,50.0,30.2,47,30.13,10.0,South,12.7,16.1,N/A,,Clear,180,2013-11-09 19:15:00
11:35 AM,50.0,30.2,47,30.12,10.0,South,13.8,20.7,N/A,,Clear,170,2013-11-09 19:35:00
11:55 AM,50.0,28.4,43,30.11,10.0,South,13.8,23.0,N/A,,Scattered Clouds,170,2013-11-09 19:55:00
12:15 PM,51.8,30.2,44,30.10,10.0,South,18.4,23.0,N/A,,Mostly Cloudy,180,2013-11-09 20:15:00
12:35 PM,51.8,30.2,44,30.09,10.0,SSE,16.1,20.7,N/A,,Overcast,150,2013-11-09 20:35:00
12:55 PM,51.8,30.2,44,30.09,10.0,South,15.0,24.2,N/A,,Overcast,170,2013-11-09 20:55:00
1:15 PM,51.8,30.2,44,30.09,10.0,SSE,18.4,26.5,N/A,,Overcast,160,2013-11-09 21:15:00
1:35 PM,51.8,30.2,44,30.08,10.0,SSE,17.3,25.3,N/A,,Overcast,160,2013-11-09 21:35:00
1:55 PM,53.6,30.2,41,30.08,10.0,South,17.3,23.0,N/A,,Overcast,170,2013-11-09 21:55:00
2:15 PM,53.6,30.2,41,30.07,10.0,SSE,18.4,26.5,N/A,,Overcast,150,2013-11-09 22:15:00
2:35 PM,53.6,28.4,38,30.08,10.0,South,16.1,20.7,N/A,,Scattered Clouds,180,2013-11-09 22:35:00
2:55 PM,53.6,28.4,38,30.07,10.0,South,17.3,23.0,N/A,,Clear,170,2013-11-09 22:55:00
3:15 PM,51.8,28.4,41,30.07,10.0,South,13.8,20.7,N/A,,Clear,170,2013-11-09 23:15:00
3:35 PM,51.8,28.4,41,30.07,10.0,South,11.5,-,N/A,,Mostly Cloudy,180,2013-11-09 23:35:00
3:55 PM,51.8,28.4,41,30.07,10.0,South,12.7,-,N/A,,Overcast,180,2013-11-09 23:55:00
4:15 PM,51.8,28.4,41,30.07,10.0,South,16.1,-,N/A,,Overcast,190,2013-11-10 00:15:00
4:35 PM,50.0,28.4,43,30.07,10.0,South,15.0,-,N/A,,Overcast,190,2013-11-10 00:35:00
4:55 PM,50.0,28.4,43,30.07,10.0,SSW,15.0,-,N/A,,Overcast,200,2013-11-10 00:55:00
5:15 PM,50.0,28.4,43,30.08,10.0,South,16.1,23.0,N/A,,Scattered Clouds,190,2013-11-10 01:15:00
5:35 PM,50.0,26.6,40,30.08,10.0,South,20.7,25.3,N/A,,Scattered Clouds,190,2013-11-10 01:35:00
5:55 PM,50.0,26.6,40,30.09,10.0,South,18.4,-,N/A,,Mostly Cloudy,180,2013-11-10 01:55:00
6:15 PM,50.0,26.6,40,30.09,10.0,South,17.3,21.9,N/A,,Mostly Cloudy,190,2013-11-10 02:15:00
6:35 PM,50.0,28.4,43,30.09,10.0,South,16.1,19.6,N/A,,Overcast,190,2013-11-10 02:35:00
6:55 PM,50.0,26.6,40,30.09,10.0,SSW,19.6,24.2,N/A,,Overcast,200,2013-11-10 02:55:00
7:15 PM,50.0,26.6,40,30.09,10.0,South,15.0,24.2,N/A,,Overcast,180,2013-11-10 03:15:00
7:35 PM,50.0,26.6,40,30.09,10.0,SSW,18.4,25.3,N/A,,Overcast,200,2013-11-10 03:35:00
7:55 PM,50.0,26.6,40,30.10,10.0,South,13.8,-,N/A,,Overcast,190,2013-11-10 03:55:00
8:15 PM,50.0,26.6,40,30.09,10.0,South,16.1,20.7,N/A,,Overcast,180,2013-11-10 04:15:00
8:35 PM,50.0,26.6,40,30.10,10.0,South,20.7,25.3,N/A,,Overcast,190,2013-11-10 04:35:00
8:55 PM,50.0,26.6,40,30.10,10.0,South,20.7,25.3,N/A,,Overcast,180,2013-11-10 04:55:00
9:15 PM,50.0,26.6,40,30.11,10.0,South,17.3,25.3,N/A,,Overcast,190,2013-11-10 05:15:00
9:35 PM,50.0,26.6,40,30.11,10.0,South,13.8,20.7,N/A,,Overcast,190,2013-11-10 05:35:00
9:55 PM,50.0,26.6,40,30.11,10.0,South,12.7,18.4,N/A,,Overcast,180,2013-11-10 05:55:00
10:15 PM,50.0,26.6,40,30.11,10.0,South,15.0,20.7,N/A,,Overcast,190,2013-11-10 06:15:00
10:35 PM,50.0,26.6,40,30.11,10.0,South,16.1,23.0,N/A,,Overcast,180,2013-11-10 06:35:00
10:55 PM,50.0,26.6,40,30.11,10.0,South,17.3,-,N/A,,Overcast,190,2013-11-10 06:55:00
11:15 PM,50.0,26.6,40,30.10,10.0,South,11.5,18.4,N/A,,Overcast,170,2013-11-10 07:15:00
11:35 PM,51.8,26.6,38,30.10,10.0,SSW,18.4,23.0,N/A,,Overcast,200,2013-11-10 07:35:00
11:55 PM,50.0,26.6,40,30.10,10.0,South,15.0,27.6,N/A,,Mostly Cloudy,190,2013-11-10 07:55:00